When you browse on this site, cookies collect data to enhance your experience and personalize the content and advertising you see.
Visit our Privacy Policy to learn more. By continuing to use the site, you agree to this use of cookies and data.
  • en Belgique
  • Liste des pays
  • À 7 jours
  • Température de l'eau
  • Carte satellitaire
  • Carte météo
  • Widgets météo
  • user-avatar
    Se connecter

    Météo par heure à Bastogne

    Ce jour, 23 Février, Samedi

    Heure Température Précipitation Vent Pression Humidité
    00:00 +7°C° 0 mm 5 m/s 777 mmHg 92%
    01:00 +6°C° 0 mm 5 m/s 777 mmHg 92%
    02:00 +6°C° 0 mm 4 m/s 776 mmHg 93%
    03:00 +6°C° 0 mm 4 m/s 776 mmHg 93%
    04:00 +6°C° 0 mm 4 m/s 776 mmHg 93%
    05:00 +6°C° 0 mm 4 m/s 776 mmHg 92%
    06:00 +5°C° 0 mm 4 m/s 777 mmHg 92%
    07:00 +6°C° 0 mm 4 m/s 776 mmHg 88%
    08:00 +7°C° 0 mm 4 m/s 776 mmHg 84%
    09:00 +7°C° 0 mm 4 m/s 776 mmHg 80%
    10:00 +10°C° 0 mm 4 m/s 776 mmHg 74%
    11:00 +11°C° 0 mm 3 m/s 776 mmHg 69%
    12:00 +12°C° 0 mm 3 m/s 776 mmHg 63%
    13:00 +13°C° 0 mm 3 m/s 776 mmHg 61%
    14:00 +14°C° 0 mm 2 m/s 776 mmHg 59%
    15:00 +14°C° 0 mm 2 m/s 775 mmHg 57%
    16:00 +12°C° 0 mm 3 m/s 775 mmHg 61%
    17:00 +11°C° 0 mm 3 m/s 775 mmHg 65%
    18:00 +10°C° 0 mm 3 m/s 775 mmHg 69%
    19:00 +9°C° 0 mm 3 m/s 776 mmHg 70%
    20:00 +9°C° 0 mm 3 m/s 776 mmHg 70%
    21:00 +8°C° 0 mm 3 m/s 776 mmHg 71%
    22:00 +8°C° 0 mm 3 m/s 776 mmHg 69%
    23:00 +7°C° 0 mm 3 m/s 776 mmHg 67%

    Demain, 24 Février, Dimanche

    Heure Température Précipitation Vent Pression Humidité
    00:00 +7°C° 0 mm 2 m/s 776 mmHg 65%
    01:00 +6°C° 0 mm 2 m/s 776 mmHg 63%
    02:00 +6°C° 0 mm 2 m/s 776 mmHg 61%
    03:00 +5°C° 0 mm 2 m/s 776 mmHg 59%
    04:00 +5°C° 0 mm 2 m/s 776 mmHg 57%
    05:00 +5°C° 0 mm 2 m/s 776 mmHg 55%
    06:00 +5°C° 0 mm 2 m/s 776 mmHg 52%
    07:00 +5°C° 0 mm 2 m/s 777 mmHg 50%
    08:00 +6°C° 0 mm 2 m/s 777 mmHg 48%
    09:00 +7°C° 0 mm 2 m/s 777 mmHg 46%
    10:00 +9°C° 0 mm 2 m/s 777 mmHg 42%
    11:00 +10°C° 0 mm 2 m/s 777 mmHg 39%
    12:00 +12°C° 0 mm 2 m/s 778 mmHg 35%
    13:00 +13°C° 0 mm 2 m/s 777 mmHg 35%
    14:00 +13°C° 0 mm 2 m/s 777 mmHg 36%
    15:00 +14°C° 0 mm 2 m/s 777 mmHg 36%
    16:00 +13°C° 0 mm 2 m/s 777 mmHg 39%
    17:00 +12°C° 0 mm 2 m/s 777 mmHg 41%
    18:00 +9°C° 0 mm 2 m/s 777 mmHg 44%
    19:00 +9°C° 0 mm 3 m/s 777 mmHg 44%
    20:00 +8°C° 0 mm 3 m/s 778 mmHg 45%
    21:00 +8°C° 0 mm 3 m/s 778 mmHg 46%
    22:00 +8°C° 0 mm 2 m/s 778 mmHg 47%
    23:00 +7°C° 0 mm 2 m/s 778 mmHg 48%

    Après-demain, 25 Février, Lundi

    Heure Température Précipitation Vent Pression Humidité
    00:00 +7°C° 0 mm 2 m/s 778 mmHg 49%
    01:00 +7°C° 0 mm 2 m/s 778 mmHg 52%
    02:00 +7°C° 0 mm 2 m/s 778 mmHg 54%
    03:00 +6°C° 0 mm 2 m/s 778 mmHg 57%
    04:00 +6°C° 0 mm 2 m/s 778 mmHg 58%
    05:00 +7°C° 0 mm 1 m/s 778 mmHg 59%
    06:00 +7°C° 0 mm 1 m/s 778 mmHg 60%
    07:00 +8°C° 0 mm 1 m/s 778 mmHg 59%
    08:00 +8°C° 0 mm 2 m/s 778 mmHg 58%
    09:00 +8°C° 0 mm 2 m/s 779 mmHg 57%
    10:00 +10°C° 0 mm 2 m/s 778 mmHg 54%
    11:00 +12°C° 0 mm 2 m/s 778 mmHg 50%
    12:00 +14°C° 0 mm 2 m/s 778 mmHg 46%
    13:00 +14°C° 0 mm 2 m/s 778 mmHg 46%
    14:00 +15°C° 0 mm 1 m/s 777 mmHg 46%
    15:00 +15°C° 0 mm 1 m/s 777 mmHg 45%
    16:00 +14°C° 0 mm 1 m/s 777 mmHg 48%
    17:00 +13°C° 0 mm 2 m/s 777 mmHg 52%
    18:00 +10°C° 0 mm 3 m/s 777 mmHg 55%
    19:00 +10°C° 0 mm 3 m/s 777 mmHg 56%
    20:00 +10°C° 0 mm 3 m/s 777 mmHg 58%
    21:00 +9°C° 0 mm 3 m/s 777 mmHg 59%
    22:00 +9°C° 0 mm 3 m/s 777 mmHg 61%
    23:00 +8°C° 0 mm 3 m/s 777 mmHg 63%

    26 Février, Mardi

    Heure Température Précipitation Vent Pression Humidité
    00:00 +8°C° 0 mm 3 m/s 777 mmHg 65%
    01:00 +8°C° 0 mm 2 m/s 777 mmHg 67%
    02:00 +8°C° 0 mm 2 m/s 776 mmHg 70%
    03:00 +7°C° 0 mm 2 m/s 776 mmHg 72%
    04:00 +8°C° 0 mm 1 m/s 776 mmHg 74%
    05:00 +8°C° 0 mm 1 m/s 776 mmHg 75%
    06:00 +8°C° 0 mm 1 m/s 776 mmHg 77%
    07:00 +9°C° 0 mm 1 m/s 776 mmHg 74%
    08:00 +10°C° 0 mm 1 m/s 776 mmHg 70%
    09:00 +11°C° 0 mm 1 m/s 776 mmHg 67%
    10:00 +12°C° 0 mm 1 m/s 776 mmHg 63%
    11:00 +13°C° 0 mm 1 m/s 776 mmHg 59%
    12:00 +15°C° 0 mm 1 m/s 776 mmHg 55%
    13:00 +15°C° 0 mm 1 m/s 775 mmHg 54%
    14:00 +16°C° 0 mm 1 m/s 775 mmHg 53%
    15:00 +16°C° 0 mm 2 m/s 775 mmHg 52%
    16:00 +15°C° 0 mm 2 m/s 774 mmHg 56%
    17:00 +14°C° 0 mm 2 m/s 774 mmHg 60%
    18:00 +11°C° 0 mm 3 m/s 774 mmHg 64%
    19:00 +11°C° 0 mm 3 m/s 774 mmHg 65%
    20:00 +10°C° 0 mm 3 m/s 774 mmHg 66%
    21:00 +10°C° 0 mm 3 m/s 774 mmHg 68%
    22:00 +10°C° 0 mm 3 m/s 774 mmHg 69%
    23:00 +9°C° 0 mm 3 m/s 773 mmHg 70%

    27 Février, Mercredi

    Heure Température Précipitation Vent Pression Humidité
    00:00 +9°C° 0 mm 3 m/s 773 mmHg 71%
    01:00 +8°C° 0 mm 3 m/s 773 mmHg 74%
    02:00 +8°C° 0 mm 3 m/s 772 mmHg 76%
    03:00 +8°C° 0 mm 3 m/s 772 mmHg 78%
    04:00 +8°C° 0 mm 3 m/s 772 mmHg 79%
    05:00 +7°C° 0 mm 3 m/s 771 mmHg 80%
    06:00 +7°C° 0 mm 3 m/s 771 mmHg 81%
    07:00 +8°C° 0 mm 3 m/s 771 mmHg 78%
    08:00 +8°C° 0 mm 3 m/s 771 mmHg 75%
    09:00 +8°C° 0 mm 4 m/s 771 mmHg 72%
    10:00 +11°C° 0 mm 4 m/s 771 mmHg 68%
    11:00 +12°C° 0 mm 3 m/s 770 mmHg 65%
    12:00 +13°C° 0 mm 3 m/s 770 mmHg 62%
    13:00 +14°C° 0 mm 4 m/s 769 mmHg 62%
    14:00 +14°C° 0 mm 4 m/s 769 mmHg 62%
    15:00 +14°C° 0 mm 4 m/s 768 mmHg 62%
    16:00 +13°C° 0 mm 4 m/s 768 mmHg 69%
    17:00 +12°C° 0 mm 4 m/s 768 mmHg 76%
    18:00 +9°C° 0 mm 5 m/s 768 mmHg 83%
    19:00 +9°C° 0 mm 5 m/s 768 mmHg 85%
    20:00 +8°C° 0 mm 5 m/s 768 mmHg 87%
    21:00 +8°C° 0 mm 6 m/s 768 mmHg 89%
    22:00 +8°C° 0 mm 6 m/s 768 mmHg 89%
    23:00 +8°C° 0 mm 6 m/s 768 mmHg 90%

    28 Février, Jeudi

    Heure Température Précipitation Vent Pression Humidité
    00:00 +7°C° 0 mm 6 m/s 767 mmHg 90%
    01:00 +6°C° 0 mm 7 m/s 767 mmHg 90%
    02:00 +6°C° 0 mm 7 m/s 767 mmHg 91%
    03:00 +6°C° 0 mm 7 m/s 767 mmHg 92%
    04:00 +6°C° 0 mm 7 m/s 767 mmHg 92%
    05:00 +6°C° 0 mm 7 m/s 768 mmHg 92%
    06:00 +6°C° 0 mm 7 m/s 768 mmHg 92%
    07:00 +8°C° 0 mm 7 m/s 768 mmHg 90%
    08:00 +8°C° 0 mm 7 m/s 768 mmHg 88%
    09:00 +9°C° 0 mm 7 m/s 769 mmHg 86%
    10:00 +9°C° 0 mm 7 m/s 769 mmHg 83%
    11:00 +10°C° 0 mm 7 m/s 770 mmHg 80%
    12:00 +10°C° 0 mm 6 m/s 770 mmHg 77%
    13:00 +10°C° 0 mm 6 m/s 770 mmHg 76%
    14:00 +10°C° 0 mm 5 m/s 770 mmHg 75%
    15:00 +12°C° 0 mm 5 m/s 770 mmHg 73%
    16:00 +11°C° 0 mm 4 m/s 770 mmHg 78%
    17:00 +10°C° 0 mm 3 m/s 771 mmHg 82%
    18:00 +9°C° 0 mm 2 m/s 771 mmHg 87%
    19:00 +9°C° 0 mm 2 m/s 771 mmHg 86%
    20:00 +8°C° 0 mm 2 m/s 771 mmHg 85%
    21:00 +8°C° 0 mm 2 m/s 771 mmHg 85%
    22:00 +9°C° 0 mm 2 m/s 771 mmHg 84%
    23:00 +9°C° 0 mm 2 m/s 771 mmHg 82%
    Voir plus